Location: Unspecified
(0.0000°N, 0.0000°E)
Time: 04:56:33
(UTC+00:00)

DMSP F15 (USA 147) - Pass Details

Date: 19 May 2026
Orbit: 826 x 841 km, 99.0° (Epoch: 11 June)

Event Time Altitude Azimuth Distance (km) Brightness Sun altitude
Exits shadow 20:06:37 64° 330° (NNW) 914 5.4 -30.4°
Drops below altitude 10° 20:11:10 10° 345° (NNW) 2,427 8.0 -31.4°
Sets 20:13:30 0° 346° (NNW) 3,356 8.8 -31.9°
